| time (UTC) | temp F | wind direction | speed knots | gust knots | rain 1hr in | rain 24hr in | rain mn in | humidity % | barometer mb |
| 20260504015811 | 52 | 335 | 4.3 | 11.3 | 0.00 | 0.00 | 0.00 | 45 | 1019.4 |
| 20260504014804 | 52 | 337 | 6.1 | 11.3 | 0.00 | 0.00 | 0.00 | 45 | 1019.6 |
| 20260504013803 | 52 | 355 | 6.1 | 11.3 | 0.00 | 0.00 | 0.00 | 45 | 1019.6 |
| 20260504011804 | 52 | 349 | 4.3 | 8.7 | 0.00 | 0.00 | 0.00 | 45 | 1019.7 |
| 20260504010804 | 53 | 336 | 5.2 | 11.3 | 0.00 | 0.00 | 0.00 | 44 | 1019.6 |
| 20260504005804 | 53 | 355 | 6.1 | 12.2 | 0.00 | 0.00 | 0.00 | 44 | 1019.6 |
| 20260504004804 | 52 | 354 | 6.1 | 10.4 | 0.00 | 0.00 | 0.00 | 45 | 1019.6 |
| 20260504003804 | 52 | 357 | 6.1 | 11.3 | 0.00 | 0.00 | 0.00 | 46 | 1019.7 |
| 20260504002804 | 52 | 346 | 5.2 | 12.2 | 0.00 | 0.00 | 0.00 | 46 | 1019.7 |
| 20260504001804 | 52 | 13 | 5.2 | 10.4 | 0.00 | 0.00 | 0.00 | 46 | 1019.6 |
| 20260504000804 | 52 | 9 | 4.3 | 8.7 | 0.00 | 0.00 | 0.00 | 47 | 1019.7 |
| 20260503235804 | 52 | 309 | 3.5 | 10.4 | 0.00 | 0.00 | 0.00 | 47 | 1019.7 |
| 20260503234803 | 52 | 344 | 4.3 | 13.9 | 0.00 | 0.00 | 0.00 | 47 | 1019.6 |
| 20260503233804 | 52 | 21 | 5.2 | 10.4 | 0.00 | 0.00 | 0.00 | 46 | 1019.5 |
| 20260503232804 | 52 | 340 | 3.5 | 8.7 | 0.00 | 0.00 | 0.00 | 46 | 1019.5 |
| 20260503230804 | 53 | 343 | 7.0 | 10.4 | 0.00 | 0.00 | 0.00 | 45 | 1019.5 |
| 20260503225804 | 53 | 346 | 7.8 | 12.2 | 0.00 | 0.00 | 0.00 | 45 | 1019.5 |
| 20260503224803 | 53 | 10 | 5.2 | 11.3 | 0.00 | 0.00 | 0.00 | 46 | 1019.4 |
| 20260503222804 | 53 | 0 | 5.2 | 11.3 | 0.00 | 0.00 | 0.00 | 46 | 1019.3 |
| 20260503220803 | 52 | 282 | 2.6 | 5.2 | 0.00 | 0.00 | 0.00 | 48 | 1019.4 |
| 20260503215804 | 53 | 355 | 5.2 | 12.2 | 0.00 | 0.00 | 0.00 | 46 | 1019.5 |
| 20260503214804 | 53 | 350 | 5.2 | 10.4 | 0.00 | 0.00 | 0.00 | 46 | 1019.4 |
| 20260503212804 | 53 | 357 | 6.1 | 11.3 | 0.00 | 0.00 | 0.00 | 46 | 1019.3 |
| 20260503211803 | 53 | 20 | 5.2 | 13.9 | 0.00 | 0.00 | 0.00 | 45 | 1019.3 |
| 20260503205804 | 53 | 38 | 2.6 | 7.8 | 0.00 | 0.00 | 0.00 | 45 | 1019.4 |
| 20260503204804 | 53 | 306 | 4.3 | 7.8 | 0.00 | 0.00 | 0.00 | 46 | 1019.3 |
| 20260503203803 | 53 | 30 | 5.2 | 11.3 | 0.00 | 0.00 | 0.00 | 45 | 1019.4 |
| 20260503202803 | 53 | 350 | 5.2 | 11.3 | 0.00 | 0.00 | 0.00 | 45 | 1019.5 |
| 20260503201804 | 54 | 0 | 5.2 | 11.3 | 0.00 | 0.00 | 0.00 | 44 | 1019.6 |
| 20260503195804 | 55 | 334 | 4.3 | 12.2 | 0.00 | 0.00 | 0.00 | 42 | 1019.5 |
| 20260503193804 | 55 | 45 | 2.6 | 10.4 | 0.00 | 0.00 | 0.00 | 40 | 1019.6 |
| 20260503192803 | 55 | 33 | 4.3 | 11.3 | 0.00 | 0.00 | 0.00 | 40 | 1019.6 |
| 20260503191804 | 55 | 3 | 4.3 | 11.3 | 0.00 | 0.00 | 0.00 | 42 | 1019.6 |
| 20260503190804 | 55 | 0 | 5.2 | 13.0 | 0.00 | 0.00 | 0.00 | 42 | 1019.6 |
| 20260503185804 | 55 | 28 | 5.2 | 12.2 | 0.00 | 0.00 | 0.00 | 41 | 1019.6 |
| 20260503184804 | 56 | 25 | 5.2 | 11.3 | 0.00 | 0.00 | 0.00 | 41 | 1019.4 |
| 20260503183803 | 56 | 8 | 5.2 | 13.0 | 0.00 | 0.00 | 0.00 | 40 | 1019.3 |
| 20260503182804 | 56 | 13 | 7.0 | 13.0 | 0.00 | 0.00 | 0.00 | 40 | 1019.2 |
| 20260503181803 | 56 | 21 | 7.0 | 12.2 | 0.00 | 0.00 | 0.00 | 40 | 1019.1 |
| 20260503175804 | 56 | 20 | 4.3 | 12.2 | 0.00 | 0.00 | 0.00 | 41 | 1019.0 |
| 20260503173804 | 57 | 113 | 7.8 | 13.9 | 0.00 | 0.00 | 0.00 | 40 | 1018.9 |
| 20260503171804 | 57 | 352 | 6.1 | 11.3 | 0.00 | 0.00 | 0.00 | 41 | 1018.6 |
| 20260503170804 | 57 | 348 | 5.2 | 11.3 | 0.00 | 0.00 | 0.00 | 41 | 1018.5 |
| 20260503110804 | 59 | 54 | 1.7 | 11.3 | 0.00 | 0.00 | 0.00 | 38 | 1018.7 |
| 20260503080804 | 54 | 13 | 1.7 | 5.2 | 0.00 | 0.00 | 0.00 | 55 | 1019.5 |
| 20260503072804 | 53 | 13 | 1.7 | 7.8 | 0.00 | 0.00 | 0.00 | 59 | 1019.7 |
| 20260503071804 | 53 | 13 | 1.7 | 5.2 | 0.00 | 0.00 | 0.00 | 60 | 1019.7 |
| 20260503052804 | 50 | 11 | 0.0 | 1.7 | 0.00 | 0.00 | 0.00 | 67 | 1019.6 |
| 20260503051803 | 49 | 11 | 0.0 | 0.9 | 0.00 | 0.00 | 0.00 | 68 | 1019.5 |
| 20260503050804 | 49 | 11 | 0.0 | 0.0 | 0.00 | 0.00 | 0.00 | 69 | 1019.5 |
| 20260503044803 | 48 | 11 | 0.0 | 1.7 | 0.00 | 0.00 | 0.00 | 69 | 1019.5 |
| 20260503042804 | 49 | 11 | 1.7 | 5.2 | 0.00 | 0.00 | 0.00 | 67 | 1019.5 |
| 20260503041803 | 48 | 11 | 0.0 | 4.3 | 0.00 | 0.00 | 0.00 | 69 | 1019.4 |
| 20260503040803 | 49 | 11 | 1.7 | 6.1 | 0.00 | 0.00 | 0.00 | 66 | 1019.3 |
| 20260503035803 | 48 | 11 | 0.9 | 5.2 | 0.00 | 0.00 | 0.00 | 65 | 1019.1 |
| 20260503033804 | 48 | 13 | 2.6 | 7.8 | 0.00 | 0.00 | 0.00 | 67 | 1018.8 |
| 20260503032804 | 48 | 14 | 1.7 | 4.3 | 0.00 | 0.00 | 0.00 | 67 | 1018.7 |
| 20260503031803 | 48 | 14 | 0.0 | 4.3 | 0.00 | 0.00 | 0.00 | 68 | 1018.8 |
| 20260503030803 | 48 | 14 | 2.6 | 6.1 | 0.00 | 0.00 | 0.00 | 69 | 1018.8 |
| 20260503025803 | 48 | 14 | 4.3 | 6.1 | 0.00 | 0.00 | 0.00 | 69 | 1018.9 |
| 20260503024803 | 48 | 14 | 5.2 | 10.4 | 0.00 | 0.00 | 0.00 | 68 | 1018.9 |
| 20260503023804 | 48 | 12 | 5.2 | 7.0 | 0.00 | 0.00 | 0.00 | 69 | 1018.8 |
| 20260503022804 | 49 | 12 | 0.9 | 2.6 | 0.00 | 0.00 | 0.00 | 68 | 1018.7 |
| 20260503020804 | 48 | 12 | 1.7 | 4.3 | 0.00 | 0.00 | 0.00 | 68 | 1018.6 |